Weather History for Marietta, GA

Change the Weather History Date:

Saturday, April 12, 2014

  Actual Average Record
Temperature  
Mean Temperature 64 °F -  
Max Temperature 80 °F 68 °F 82 °F (2001)
Min Temperature 49 °F 48 °F 37 °F (2012)
Growing Degree Days 14 (Base 50)    
Moisture  
Dew Point 50 °F    
Average Humidity 59    
Maximum Humidity 94    
Minimum Humidity 33    
Precipitation  
Precipitation 0.00 in - - ()
Sea Level Pressure  
Sea Level Pressure 30.16 in    
Wind  
Wind Speed 2 mph (South)    
Max Wind Speed 13 mph    
Max Gust Speed -    
Visibility 10 miles    
Events      
Averages and records for this station are not official NWS values.
T = Trace of Precipitation, MM = Missing Value Source: NWS Daily Summary

Daily Weather History Graph

Daily Weather History Graph

Search for Another Location

Airport:

Trip Planner

Search our weather history database for the weather conditions in past years. The results will help you decide how hot, cold, wet, or windy it might be!

Date:

Astronomy

Apr. 12, 2014 Rise Set
Actual Time 7:11 AM EDT 8:07 PM EDT
Civil Twilight 6:45 AM EDT 8:32 PM EDT
Nautical Twilight 6:15 AM EDT 9:03 PM EDT
Astronomical Twilight 5:44 AM EDT 9:34 PM EDT
Moon 5:50 PM EDT (4/12) 5:30 AM EDT (4/12)
Length of Visible Light 13h 47m
Length of Day
12h 56m
Waxing Gibbous, 93% of the Moon is Illuminated
Apr 12
Waxing Gibbous
Apr 15
Full
Apr 22
Last Quarter
Apr 29
New
May 6
First Quarter

Hourly Weather History & Observations

Time (EDT) Temp. Dew Point Humidity Pressure Visibility Wind Dir Wind Speed Gust Speed Precip Events Conditions
12:58 AM 54.9 °F 47.7 °F 77% 30.19 in 10.0 mi Calm Calm - N/A   Clear
1:58 AM 53.4 °F 47.3 °F 80% 30.17 in 10.0 mi Calm Calm - N/A   Clear
2:58 AM 55.8 °F 46.8 °F 72% 30.16 in 10.0 mi Calm Calm - N/A   Clear
3:58 AM 50.5 °F 47.1 °F 88% 30.16 in 10.0 mi Calm Calm - N/A   Clear
4:58 AM 51.8 °F 47.3 °F 85% 30.17 in 10.0 mi Calm Calm - N/A   Clear
5:58 AM 50.7 °F 47.1 °F 87% 30.17 in 10.0 mi Calm Calm - N/A   Clear
6:58 AM 49.5 °F 46.8 °F 90% 30.19 in 10.0 mi Calm Calm - N/A   Partly Cloudy
7:58 AM 49.5 °F 47.7 °F 94% 30.21 in 10.0 mi Calm Calm - N/A   Clear
8:58 AM 57.7 °F 49.6 °F 74% 30.22 in 10.0 mi NNW 1.2 mph - N/A   Clear
9:58 AM 64.8 °F 51.8 °F 63% 30.22 in 10.0 mi Calm Calm - N/A   Clear
10:58 AM 70.5 °F 51.8 °F 51% 30.22 in 10.0 mi WSW 4.6 mph - N/A   Clear
11:58 AM 73.2 °F 52.2 °F 48% 30.22 in 10.0 mi Variable 2.3 mph - N/A   Clear
12:58 PM 75.7 °F 51.1 °F 42% 30.19 in 10.0 mi North 1.2 mph - N/A   Partly Cloudy
1:58 PM 77.5 °F 47.1 °F 34% 30.17 in 10.0 mi Variable 6.9 mph - N/A   Partly Cloudy
2:58 PM 78.4 °F 50.4 °F 37% 30.14 in 10.0 mi South 4.6 mph - N/A   Partly Cloudy
3:58 PM 80.4 °F 50.2 °F 35% 30.11 in 10.0 mi South 10.4 mph - N/A   Partly Cloudy
4:58 PM 80.2 °F 48.7 °F 33% 30.09 in 10.0 mi SE 12.7 mph - N/A   Partly Cloudy
5:58 PM 79.7 °F 48.0 °F 33% 30.09 in 10.0 mi Variable 4.6 mph - N/A   Partly Cloudy
6:58 PM 78.6 °F 51.3 °F 38% 30.09 in 10.0 mi Variable 6.9 mph - N/A   Scattered Clouds
7:58 PM 75.4 °F 50.9 °F 42% 30.10 in 10.0 mi South 5.8 mph - N/A   Mostly Cloudy
8:58 PM 72.9 °F 51.3 °F 47% 30.11 in 10.0 mi South 3.5 mph - N/A   Mostly Cloudy
9:58 PM 69.4 °F 52.2 °F 54% 30.13 in 10.0 mi South 2.3 mph - N/A   Mostly Cloudy
10:58 PM 67.3 °F 52.7 °F 59% 30.12 in 10.0 mi SSE 4.6 mph - N/A   Mostly Cloudy
11:58 PM 66.7 °F 53.1 °F 61% 30.12 in 10.0 mi South 5.8 mph - N/A   Clear